Skip Page Navigation
NASA JPL Caltech
NASA Logo - Jet Propulsion Laboratory + View the NASA Portal
+ Near-Earth Object (NEO) Program
Search JPL
JPL Home Earth Solar System Stars & Galaxies Technology
JPL Solar System Dynamics
BODIES ORBITS EPHEMERIDES TOOLS PHYSICAL DATA DISCOVERY FAQ SITE MAP
JPL Small-Body Database Browser
Search: [ help ]  
289436 (2005 EU29)
Classification: Main-belt Asteroid          SPK-ID: 2289436
Ephemeris | Orbit Diagram | Orbital Elements | Physical Parameters | Discovery Circumstances ]

[ hide orbit diagram ]
Orbit Diagram
Note: Make sure you have Java enabled on your browser to see the applet. This applet is provided as a 3D orbit visualization tool. The applet was implemented using 2-body methods, and hence should not be used for determining accurate long-term trajectories (over several years or decades) or planetary encounter circumstances. For accurate long-term ephemerides, please instead use our Horizons system.
Orbit Viewer

Additional Notes: the orbits shown in the applet are color coded. The planets are white lines, and the asteroid/comet is a blue line. The bright white line indicates the portion of the orbit that is above the ecliptic plane, and the darker portion is below the ecliptic plane. Likewise for the asteroid/comet orbit, the light blue indicates the portion above the ecliptic plane, and the dark blue the portion below the ecliptic plane.

Orbit Viewer applet originally written and kindly provided by Osamu Ajiki (AstroArts), and further modified by Ron Baalke (JPL).


Orbital Elements at Epoch 2456400.5 (2013-Apr-18.0) TDB
Reference: MPO234305 (heliocentric ecliptic J2000)
 Element Value Uncertainty (1-sigma)   Units 
e 0.1024652 n/a  
a 2.1468954 n/a AU
q 1.9269133 n/a AU
i 4.04597 n/a deg
node 38.99966 n/a deg
peri 28.93375 n/a deg
M 282.67441 n/a deg
tp 2456647.2945046
(2013-Dec-20.79450460)
n/a JED
period 1148.9860166
3.15
n/a
n/a
d
yr
n 0.31331974 n/a deg/d
Q 2.3668775 n/a AU
  Orbit Determination Parameters
   # obs. used (total)      111  
   first obs. used      1994-??-??  
   last obs. used      2012-06-12  
   # oppositions      6  
   planetary ephem.      DE403  
   condition code      1  
   fit RMS      0.56  
   data source      MPC:mpu  
   producer      MPCLINUX  

Additional Information
 T_jup = 3.698 

Ephemeris | Orbit Diagram | Orbital Elements | Physical Parameters | Discovery Circumstances ]

Physical Parameter Table
Parameter Symbol Value Units Sigma Reference Notes
absolute magnitude H 17.7 mag n/a MPO234305  

289436 (2005 EU29)          Discovered 2005-Mar-02 by Calvin College at Calvin-Rehoboth (G98)
Reference: 20110912/Numbers.arcLast Updated: 2011-09-14
Ephemeris | Orbit Diagram | Orbital Elements | Physical Parameters | Discovery Circumstances ]
ABOUT SSD CREDITS/AWARDS PRIVACY/COPYRIGHT GLOSSARY LINKS
FirstGov 2013-May-21 12:33 UT
(server date/time)  
NASA Home Page
Site Manager:   Donald K. Yeomans
Webmaster  Alan B. Chamberlin